Regional Weather Roundup
Issued by NWS Bismarck, ND

Home | Current Version | Previous Version | Text Only | Print | Product List | Glossary On
Versions: 1 2 3 4 5 6 7 8 9 10 11 12 13 14 15 16 17 18 19 20 21 22 23 24 25 26 27 28 29 30 31 32 33 34 35 36 37 38 39 40 41 42 43 44 45 46 47 48 49 50
000
ASUS43 KBIS 170910
RWRBIS

NWR BROADCAST TEXT
NATIONAL WEATHER SERVICE BISMARCK ND
300 AM CST TUE JAN 17 2017

NOTE: "FAIR" INDICATES FEW OR NO CLOUDS BELOW 12,000 FEET WITH NO
SIGNIFICANT WEATHER AND/OR OBSTRUCTIONS TO VISIBILITY.


CITY           SKY/WX    TMP DP  RH WIND       PRES   REMARKS
WILLISTON      FAIR       7   5  91 SW6       29.94F WCI  -3
MINOT          FAIR      17  12  80 S8        29.94F WCI   7
MINOT AFB      NOT AVBL
BISMARCK       FAIR       8   4  83 CALM      30.02F
DICKINSON      FAIR      15   6  67 SW7       29.94F WCI   5
GARRISON         N/A      8   5  87 CALM      29.96F
HETTINGER ARPT FAIR       8   2  76 CALM      29.99F
JAMESTOWN      FAIR      10   7  87 SW3       29.97S
CARRINGTON     FAIR       9   7  92 W12       29.99S WCI  -6
HAZEN            N/A    N/A N/A N/A SW5       30.01S
MANDAN         FAIR      10   9  92 W13       30.00F WCI  -5
RUGBY            N/A      5   1  85 W5        29.96F FOG     WCI  -4
STANLEY        FAIR      16  12  86 W9        29.95S WCI   4
TIOGA          FAIR      12  10  92 S8        29.93F WCI   1
WATFORD CITY   FAIR       5   0  78 CALM      29.95F
$$

CITY           SKY/WX    TMP DP  RH WIND       PRES   REMARKS
GRAND FORKS    FAIR       0  -4  83 SW6       29.99F WCI -12
GRAND FORKS AF FAIR       3  -1  83 SW5       29.98F WCI  -7
DEVILS LAKE    FAIR       5   3  91 W7        29.96F WCI  -7
FARGO          FAIR       4   0  83 S6        30.01F WCI  -7
CAVALIER         N/A      0  -2  92 SW5       29.96S WCI -10
GRAFTON        FAIR       0  -2  92 S9        29.98F WCI -16
GWINNER        FAIR      12  10  92 W9        30.01F WCI   0
ROLLA            N/A    N/A N/A N/A MISG        N/A
$$

CITY           SKY/WX    TMP DP  RH WIND       PRES   REMARKS
ABERDEEN       FAIR       0  -5  79 CALM      30.04S
MOBRIDGE       FAIR       9   3  77 N5        29.99F WCI   1
BUFFALO          N/A     20   9  62 W5        29.90F WCI  13
RAPID CITY     FAIR      13   6  74 CALM      30.02F
GLASGOW        FAIR      10   5  80 SE9       29.85F WCI  -3
SIDNEY         FAIR       9   4  80 S15       29.95F WCI  -8
WOLF POINT     FAIR      -5 -11  75 CALM      29.91F
GLENDIVE       FAIR      13   6  74 S10       29.95F WCI   0
MILES CITY     FAIR      10   3  73 S8        29.96F WCI  -2
BAKER          FAIR       5  -1  76 CALM      29.96F
$$

CITY           SKY/WX    TMP DP  RH WIND       PRES   REMARKS
BILLINGS       FAIR      23   9  55 SW23      29.94F WCI   7
GREAT FALLS    FAIR      32  17  54 SW24      29.87F WCI  19
REGINA         MOCLDY    16  10  79 SE10      29.75F WCI   3
ESTEVAN        PTCLDY    16  10  79 SW15      29.87F WCI   1
$$





USA.gov is the U.S. government's official web portal to all federal, state and local government web resources and services.